Location: Dehesa de la Cepeda
(40.6574°N, 4.3013°W)
Time: 12:45:53
(UTC+00:00)

Transit 2A Rocket - Pass Details

Date: 06 August 2021
Orbit: 586 x 917 km, 66.7° (Epoch: 27 September)

Event Time Altitude Azimuth Distance (km) Brightness Sun altitude
Rises 20:38:26 0° 339° (NNW) 3,278 9.3 -12.7°
Reaches altitude 10° 20:41:12 10° 353° (N) 2,403 8.2 -13.2°
Maximum altitude 20:45:48 25° 48° (NE) 1,639 6.6 -13.9°
Enters shadow 20:49:20 15° 94° (E) 2,186 6.9 -14.4°
